Location: Eaton
(41.3139°N, 82.0207°W)
Time: 11:56:29
(UTC+00:00)

AQUA - Pass Details

Date: 17 June 2021
Orbit: 701 x 704 km, 98.2° (Epoch: 31 July)

Event Time Altitude Azimuth Distance (km) Brightness Sun altitude
Rises 07:50:33 0° 7° (N) 3,103 8.3 -17.5°
Reaches altitude 10° 07:52:52 10° 2° (N) 2,180 7.2 -17.2°
Maximum altitude 07:57:28 51° 288° (WNW) 889 4.2 -16.7°
Enters shadow 07:59:40 28° 228° (SW) 1,297 4.6 -16.5°
